Year,Month,Day,Hour,Minute,Value (Times are PST for temperature in C)
2010,11,08,00,00,7.20
2010,11,08,00,01,7.20
2010,11,08,00,02,7.20
2010,11,08,00,03,7.20
2010,11,08,00,04,7.20
2010,11,08,00,05,7.30
2010,11,08,00,06,7.30
2010,11,08,00,07,7.30
2010,11,08,00,08,7.30
2010,11,08,00,09,7.30
2010,11,08,00,10,7.30
2010,11,08,00,11,7.30
2010,11,08,00,12,7.30
2010,11,08,00,13,7.20
2010,11,08,00,14,7.20
2010,11,08,00,15,7.20
2010,11,08,00,16,7.20
2010,11,08,00,17,7.10
2010,11,08,00,18,7.10
2010,11,08,00,19,7.00
2010,11,08,00,20,7.00
2010,11,08,00,21,6.90
2010,11,08,00,22,6.90
2010,11,08,00,23,6.90
2010,11,08,00,24,6.80
2010,11,08,00,25,6.80
2010,11,08,00,26,6.80
2010,11,08,00,27,6.80
2010,11,08,00,28,6.70
2010,11,08,00,29,6.70
2010,11,08,00,30,6.70
2010,11,08,00,31,6.70
2010,11,08,00,32,6.70
2010,11,08,00,33,6.60
2010,11,08,00,34,6.60
2010,11,08,00,35,6.60
2010,11,08,00,36,6.60
2010,11,08,00,37,6.60
2010,11,08,00,38,6.60
2010,11,08,00,39,6.60
2010,11,08,00,40,6.60
2010,11,08,00,41,6.60
2010,11,08,00,42,6.60
2010,11,08,00,43,6.60
2010,11,08,00,44,6.60
2010,11,08,00,45,6.50
2010,11,08,00,46,6.50
2010,11,08,00,47,6.50
2010,11,08,00,48,6.50
2010,11,08,00,49,6.50
2010,11,08,00,50,6.50
2010,11,08,00,51,6.50
2010,11,08,00,52,6.50
2010,11,08,00,53,6.50
2010,11,08,00,54,6.40
2010,11,08,00,55,6.40
2010,11,08,00,56,6.40
2010,11,08,00,57,6.40
2010,11,08,00,58,6.40
2010,11,08,00,59,6.40
2010,11,08,01,00,6.40
2010,11,08,01,01,6.40
2010,11,08,01,02,6.40
2010,11,08,01,03,6.40
2010,11,08,01,04,6.40
2010,11,08,01,05,6.40
2010,11,08,01,06,6.40
2010,11,08,01,07,6.40
2010,11,08,01,08,6.40
2010,11,08,01,09,6.40
2010,11,08,01,10,6.40
2010,11,08,01,11,6.40
2010,11,08,01,12,6.40
2010,11,08,01,13,6.50
2010,11,08,01,14,6.50
2010,11,08,01,15,6.50
2010,11,08,01,16,6.50
2010,11,08,01,17,6.50
2010,11,08,01,18,6.50
2010,11,08,01,19,6.50
2010,11,08,01,20,6.50
2010,11,08,01,21,6.50
2010,11,08,01,22,6.50
2010,11,08,01,23,6.50
2010,11,08,01,24,6.50
2010,11,08,01,25,6.50
2010,11,08,01,26,6.50
2010,11,08,01,27,6.50
2010,11,08,01,28,6.60
2010,11,08,01,29,6.60
2010,11,08,01,30,6.60
2010,11,08,01,31,6.60
2010,11,08,01,32,6.60
2010,11,08,01,33,6.60
2010,11,08,01,34,6.60
2010,11,08,01,35,6.50
2010,11,08,01,36,6.50
2010,11,08,01,37,6.50
2010,11,08,01,38,6.50
2010,11,08,01,39,6.50
2010,11,08,01,40,6.50
2010,11,08,01,41,6.40
2010,11,08,01,42,6.40
2010,11,08,01,43,6.40
2010,11,08,01,44,6.40
2010,11,08,01,45,6.40
2010,11,08,01,46,6.40
2010,11,08,01,47,6.30
2010,11,08,01,48,6.30
2010,11,08,01,49,6.30
2010,11,08,01,50,6.20
2010,11,08,01,51,6.20
2010,11,08,01,52,6.20
2010,11,08,01,53,6.20
2010,11,08,01,54,6.10
2010,11,08,01,55,6.10
2010,11,08,01,56,6.10
2010,11,08,01,57,6.10
2010,11,08,01,58,6.10
2010,11,08,01,59,6.10
2010,11,08,02,00,6.10
2010,11,08,02,01,6.10
2010,11,08,02,02,6.10
2010,11,08,02,03,6.10
2010,11,08,02,04,6.10
2010,11,08,02,05,6.10
2010,11,08,02,06,6.00
2010,11,08,02,07,6.00
2010,11,08,02,08,6.00
2010,11,08,02,09,6.00
2010,11,08,02,10,5.90
2010,11,08,02,11,5.90
2010,11,08,02,12,5.90
2010,11,08,02,13,5.90
2010,11,08,02,14,6.00
2010,11,08,02,15,6.00
2010,11,08,02,16,6.00
2010,11,08,02,17,6.10
2010,11,08,02,18,6.10
2010,11,08,02,19,6.10
2010,11,08,02,20,6.00
2010,11,08,02,21,6.00
2010,11,08,02,22,6.00
2010,11,08,02,23,6.00
2010,11,08,02,24,6.00
2010,11,08,02,25,6.00
2010,11,08,02,26,6.10
2010,11,08,02,27,6.10
2010,11,08,02,28,6.10
2010,11,08,02,29,6.10
2010,11,08,02,30,6.00
2010,11,08,02,31,6.00
2010,11,08,02,32,5.90
2010,11,08,02,33,5.80
2010,11,08,02,34,5.80
2010,11,08,02,35,5.80
2010,11,08,02,36,5.70
2010,11,08,02,37,5.70
2010,11,08,02,38,5.70
2010,11,08,02,39,5.70
2010,11,08,02,40,5.70
2010,11,08,02,41,5.70
2010,11,08,02,42,5.80
2010,11,08,02,43,5.80
2010,11,08,02,44,5.80
2010,11,08,02,45,5.80
2010,11,08,02,46,5.80
2010,11,08,02,47,5.70
2010,11,08,02,48,5.70
2010,11,08,02,49,5.70
2010,11,08,02,50,5.70
2010,11,08,02,51,5.70
2010,11,08,02,52,5.60
2010,11,08,02,53,5.60
2010,11,08,02,54,5.60
2010,11,08,02,55,5.60
2010,11,08,02,56,5.60
2010,11,08,02,57,5.60
2010,11,08,02,58,5.60
2010,11,08,02,59,5.60
2010,11,08,03,00,5.70
2010,11,08,03,01,5.70
2010,11,08,03,02,5.80
2010,11,08,03,03,5.80
2010,11,08,03,04,5.90
2010,11,08,03,05,5.90
2010,11,08,03,06,5.90
2010,11,08,03,07,5.90
2010,11,08,03,08,5.90
2010,11,08,03,09,5.90
2010,11,08,03,10,5.90
2010,11,08,03,11,5.90
2010,11,08,03,12,5.90
2010,11,08,03,13,5.80
2010,11,08,03,14,5.80
2010,11,08,03,15,5.80
2010,11,08,03,16,5.80
2010,11,08,03,17,5.90
2010,11,08,03,18,5.90
2010,11,08,03,19,5.90
2010,11,08,03,20,5.90
2010,11,08,03,21,5.90
2010,11,08,03,22,5.90
2010,11,08,03,23,5.90
2010,11,08,03,24,6.00
2010,11,08,03,25,6.00
2010,11,08,03,26,6.10
2010,11,08,03,27,6.10
2010,11,08,03,28,6.10
2010,11,08,03,29,6.10
2010,11,08,03,30,6.20
2010,11,08,03,31,6.20
2010,11,08,03,32,6.20
2010,11,08,03,33,6.20
2010,11,08,03,34,6.20
2010,11,08,03,35,6.20
2010,11,08,03,36,6.10
2010,11,08,03,37,6.20
2010,11,08,03,38,6.10
2010,11,08,03,39,6.20
2010,11,08,03,40,6.20
2010,11,08,03,41,6.30
2010,11,08,03,42,6.30
2010,11,08,03,43,6.30
2010,11,08,03,44,6.20
2010,11,08,03,45,6.20
2010,11,08,03,46,6.20
2010,11,08,03,47,6.10
2010,11,08,03,48,6.10
2010,11,08,03,49,6.10
2010,11,08,03,50,6.00
2010,11,08,03,51,6.00
2010,11,08,03,52,5.90
2010,11,08,03,53,5.90
2010,11,08,03,54,5.80
2010,11,08,03,55,5.80
2010,11,08,03,56,5.80
2010,11,08,03,57,5.80
2010,11,08,03,58,5.80
2010,11,08,03,59,5.80
2010,11,08,04,00,5.80
2010,11,08,04,01,5.80
2010,11,08,04,02,5.80
2010,11,08,04,03,5.80
2010,11,08,04,04,5.80
2010,11,08,04,05,5.80
2010,11,08,04,06,5.90
2010,11,08,04,07,5.90
2010,11,08,04,08,5.80
2010,11,08,04,09,5.80
2010,11,08,04,10,5.80
2010,11,08,04,11,5.80
2010,11,08,04,12,5.80
2010,11,08,04,13,5.80
2010,11,08,04,14,5.80
2010,11,08,04,15,5.80
2010,11,08,04,16,5.80
2010,11,08,04,17,5.80
2010,11,08,04,18,5.80
2010,11,08,04,19,5.80
2010,11,08,04,20,5.80
2010,11,08,04,21,5.70
2010,11,08,04,22,5.70
2010,11,08,04,23,5.70
2010,11,08,04,24,5.70
2010,11,08,04,25,5.60
2010,11,08,04,26,5.60
2010,11,08,04,27,5.70
2010,11,08,04,28,5.70
2010,11,08,04,29,5.70
2010,11,08,04,30,5.80
2010,11,08,04,31,5.80
2010,11,08,04,32,5.80
2010,11,08,04,33,5.90
2010,11,08,04,34,5.90
2010,11,08,04,35,6.00
2010,11,08,04,36,6.00
2010,11,08,04,37,6.10
2010,11,08,04,38,6.20
2010,11,08,04,39,6.20
2010,11,08,04,40,6.20
2010,11,08,04,41,6.20
2010,11,08,04,42,6.30
2010,11,08,04,43,6.20
2010,11,08,04,44,6.20
2010,11,08,04,45,6.20
2010,11,08,04,46,6.20
2010,11,08,04,47,6.20
2010,11,08,04,48,6.20
2010,11,08,04,49,6.10
2010,11,08,04,50,6.20
2010,11,08,04,51,6.20
2010,11,08,04,52,6.20
2010,11,08,04,53,6.20
2010,11,08,04,54,6.20
2010,11,08,04,55,6.20
2010,11,08,04,56,6.20
2010,11,08,04,57,6.20
2010,11,08,04,58,6.20
2010,11,08,04,59,6.20
2010,11,08,05,00,6.20
2010,11,08,05,01,6.20
2010,11,08,05,02,6.20
2010,11,08,05,03,6.10
2010,11,08,05,04,6.10
2010,11,08,05,05,6.10
2010,11,08,05,06,6.00
2010,11,08,05,07,6.00
2010,11,08,05,08,6.00
2010,11,08,05,09,5.90
2010,11,08,05,10,5.90
2010,11,08,05,11,5.80
2010,11,08,05,12,5.80
2010,11,08,05,13,5.80
2010,11,08,05,14,5.70
2010,11,08,05,15,5.70
2010,11,08,05,16,5.70
2010,11,08,05,17,5.60
2010,11,08,05,18,5.60
2010,11,08,05,19,5.70
2010,11,08,05,20,5.70
2010,11,08,05,21,5.70
2010,11,08,05,22,5.70
2010,11,08,05,23,5.70
2010,11,08,05,24,5.60
2010,11,08,05,25,5.60
2010,11,08,05,26,5.60
2010,11,08,05,27,5.60
2010,11,08,05,28,5.60
2010,11,08,05,29,5.60
2010,11,08,05,30,5.60
2010,11,08,05,31,5.50
2010,11,08,05,32,5.50
2010,11,08,05,33,5.60
2010,11,08,05,34,5.50
2010,11,08,05,35,5.50
2010,11,08,05,36,5.50
2010,11,08,05,37,5.50
2010,11,08,05,38,5.50
2010,11,08,05,39,5.50
2010,11,08,05,40,5.50
2010,11,08,05,41,5.40
2010,11,08,05,42,5.40
2010,11,08,05,43,5.40
2010,11,08,05,44,5.40
2010,11,08,05,45,5.40
2010,11,08,05,46,5.30
2010,11,08,05,47,5.30
2010,11,08,05,48,5.30
2010,11,08,05,49,5.30
2010,11,08,05,50,5.30
2010,11,08,05,51,5.30
2010,11,08,05,52,5.30
2010,11,08,05,53,5.30
2010,11,08,05,54,5.30
2010,11,08,05,55,5.30
2010,11,08,05,56,5.30
2010,11,08,05,57,5.30
2010,11,08,05,58,5.30
2010,11,08,05,59,5.30
2010,11,08,06,00,5.30
2010,11,08,06,01,5.30
2010,11,08,06,02,5.30
2010,11,08,06,03,5.30
2010,11,08,06,04,5.30
2010,11,08,06,05,5.30
2010,11,08,06,06,5.30
2010,11,08,06,07,5.30
2010,11,08,06,08,5.30
2010,11,08,06,09,5.30
2010,11,08,06,10,5.30
2010,11,08,06,11,5.30
2010,11,08,06,12,5.30
2010,11,08,06,13,5.30
2010,11,08,06,14,5.30
2010,11,08,06,15,5.30
2010,11,08,06,16,5.30
2010,11,08,06,17,5.30
2010,11,08,06,18,5.30
2010,11,08,06,19,5.30
2010,11,08,06,20,5.30
2010,11,08,06,21,5.30
2010,11,08,06,22,5.30
2010,11,08,06,23,5.30
2010,11,08,06,24,5.30
2010,11,08,06,25,5.30
2010,11,08,06,26,5.30
2010,11,08,06,27,5.30
2010,11,08,06,28,5.30
2010,11,08,06,29,5.30
2010,11,08,06,30,5.30
2010,11,08,06,31,5.30
2010,11,08,06,32,5.30
2010,11,08,06,33,5.40
2010,11,08,06,34,5.40
2010,11,08,06,35,5.30
2010,11,08,06,36,5.30
2010,11,08,06,37,5.30
2010,11,08,06,38,5.30
2010,11,08,06,39,5.30
2010,11,08,06,40,5.30
2010,11,08,06,41,5.30
2010,11,08,06,42,5.30
2010,11,08,06,43,5.30
2010,11,08,06,44,5.40
2010,11,08,06,45,5.40
2010,11,08,06,46,5.40
2010,11,08,06,47,5.40
2010,11,08,06,48,5.40
2010,11,08,06,49,5.40
2010,11,08,06,50,5.50
2010,11,08,06,51,5.50
2010,11,08,06,52,5.50
2010,11,08,06,53,5.60
2010,11,08,06,54,5.60
2010,11,08,06,55,5.60
2010,11,08,06,56,5.60
2010,11,08,06,57,5.60
2010,11,08,06,58,5.60
2010,11,08,06,59,5.60
2010,11,08,07,00,5.60
2010,11,08,07,01,5.60
2010,11,08,07,02,5.50
2010,11,08,07,03,5.50
2010,11,08,07,04,5.50
2010,11,08,07,05,5.50
2010,11,08,07,06,5.40
2010,11,08,07,07,5.40
2010,11,08,07,08,5.40
2010,11,08,07,09,5.40
2010,11,08,07,10,5.40
2010,11,08,07,11,5.50
2010,11,08,07,12,5.50
2010,11,08,07,13,5.50
2010,11,08,07,14,5.50
2010,11,08,07,15,5.60
2010,11,08,07,16,5.60
2010,11,08,07,17,5.60
2010,11,08,07,18,5.60
2010,11,08,07,19,5.60
2010,11,08,07,20,5.60
2010,11,08,07,21,5.60
2010,11,08,07,22,5.50
2010,11,08,07,23,5.60
2010,11,08,07,24,5.50
2010,11,08,07,25,5.50
2010,11,08,07,26,5.60
2010,11,08,07,27,5.60
2010,11,08,07,28,5.60
2010,11,08,07,29,5.60
2010,11,08,07,30,5.60
2010,11,08,07,31,5.50
2010,11,08,07,32,5.50
2010,11,08,07,33,5.50
2010,11,08,07,34,5.50
2010,11,08,07,35,5.50
2010,11,08,07,36,5.60
2010,11,08,07,37,5.60
2010,11,08,07,38,5.60
2010,11,08,07,39,5.60
2010,11,08,07,40,5.60
2010,11,08,07,41,5.60
2010,11,08,07,42,5.60
2010,11,08,07,43,5.60
2010,11,08,07,44,5.50
2010,11,08,07,45,5.50
2010,11,08,07,46,5.50
2010,11,08,07,47,5.50
2010,11,08,07,48,5.50
2010,11,08,07,49,5.50
2010,11,08,07,50,5.60
2010,11,08,07,51,5.60
2010,11,08,07,52,5.60
2010,11,08,07,53,5.60
2010,11,08,07,54,5.70
2010,11,08,07,55,5.70
2010,11,08,07,56,5.70
2010,11,08,07,57,5.60
2010,11,08,07,58,5.60
2010,11,08,07,59,5.60
2010,11,08,08,00,5.60
2010,11,08,08,01,5.70
2010,11,08,08,02,5.70
2010,11,08,08,03,5.70
2010,11,08,08,04,5.70
2010,11,08,08,05,5.70
2010,11,08,08,06,5.70
2010,11,08,08,07,5.60
2010,11,08,08,08,5.60
2010,11,08,08,09,5.60
2010,11,08,08,10,5.50
2010,11,08,08,11,5.50
2010,11,08,08,12,5.40
2010,11,08,08,13,5.40
2010,11,08,08,14,5.40
2010,11,08,08,15,5.40
2010,11,08,08,16,5.50
2010,11,08,08,17,5.50
2010,11,08,08,18,5.60
2010,11,08,08,19,5.60
2010,11,08,08,20,5.70
2010,11,08,08,21,5.60
2010,11,08,08,22,5.60
2010,11,08,08,23,5.60
2010,11,08,08,24,5.60
2010,11,08,08,25,5.50
2010,11,08,08,26,5.50
2010,11,08,08,27,5.50
2010,11,08,08,28,5.50
2010,11,08,08,29,5.40
2010,11,08,08,30,5.40
2010,11,08,08,31,5.40
2010,11,08,08,32,5.40
2010,11,08,08,33,5.50
2010,11,08,08,34,5.50
2010,11,08,08,35,5.60
2010,11,08,08,36,5.60
2010,11,08,08,37,5.60
2010,11,08,08,38,5.70
2010,11,08,08,39,5.70
2010,11,08,08,40,5.70
2010,11,08,08,41,5.80
2010,11,08,08,42,5.80
2010,11,08,08,43,5.80
2010,11,08,08,44,5.90
2010,11,08,08,45,6.00
2010,11,08,08,46,6.10
2010,11,08,08,47,6.10
2010,11,08,08,48,6.20
2010,11,08,08,49,6.30
2010,11,08,08,50,6.40
2010,11,08,08,51,6.50
2010,11,08,08,52,6.60
2010,11,08,08,53,6.60
2010,11,08,08,54,6.70
2010,11,08,08,55,6.70
2010,11,08,08,56,6.80
2010,11,08,08,57,6.80
2010,11,08,08,58,6.90
2010,11,08,08,59,6.90
2010,11,08,09,00,6.90
2010,11,08,09,01,6.90
2010,11,08,09,02,7.00
2010,11,08,09,03,7.00
2010,11,08,09,04,7.00
2010,11,08,09,05,7.00
2010,11,08,09,06,7.10
2010,11,08,09,07,7.10
2010,11,08,09,08,7.10
2010,11,08,09,09,7.20
2010,11,08,09,10,7.20
2010,11,08,09,11,7.30
2010,11,08,09,12,7.40
2010,11,08,09,13,7.50
2010,11,08,09,14,7.60
2010,11,08,09,15,7.70
2010,11,08,09,16,7.80
2010,11,08,09,17,7.80
2010,11,08,09,18,7.90
2010,11,08,09,19,7.90
2010,11,08,09,20,7.90
2010,11,08,09,21,7.90
2010,11,08,09,22,8.00
2010,11,08,09,23,7.90
2010,11,08,09,24,7.90
2010,11,08,09,25,7.90
2010,11,08,09,26,8.00
2010,11,08,09,27,8.00
2010,11,08,09,28,7.90
2010,11,08,09,29,8.00
2010,11,08,09,30,8.00
2010,11,08,09,31,8.00
2010,11,08,09,32,8.00
2010,11,08,09,33,8.00
2010,11,08,09,34,8.00
2010,11,08,09,35,8.10
2010,11,08,09,36,8.10
2010,11,08,09,37,8.20
2010,11,08,09,38,8.20
2010,11,08,09,39,8.20
2010,11,08,09,40,8.20
2010,11,08,09,41,8.30
2010,11,08,09,42,8.30
2010,11,08,09,43,8.30
2010,11,08,09,44,8.40
2010,11,08,09,45,8.40
2010,11,08,09,46,8.40
2010,11,08,09,47,8.50
2010,11,08,09,48,8.50
2010,11,08,09,49,8.50
2010,11,08,09,50,8.60
2010,11,08,09,51,8.60
2010,11,08,09,52,8.70
2010,11,08,09,53,8.70
2010,11,08,09,54,8.70
2010,11,08,09,55,8.70
2010,11,08,09,56,8.80
2010,11,08,09,57,8.80
2010,11,08,09,58,8.80
2010,11,08,09,59,8.80
2010,11,08,10,00,8.80
2010,11,08,10,01,8.80
2010,11,08,10,02,8.80
2010,11,08,10,03,8.80
2010,11,08,10,04,8.80
2010,11,08,10,05,8.90
2010,11,08,10,06,8.90
2010,11,08,10,07,8.90
2010,11,08,10,08,8.90
2010,11,08,10,09,8.90
2010,11,08,10,10,8.90
2010,11,08,10,11,8.90
2010,11,08,10,12,8.90
2010,11,08,10,13,8.90
2010,11,08,10,14,9.00
2010,11,08,10,15,9.00
2010,11,08,10,16,9.10
2010,11,08,10,17,9.10
2010,11,08,10,18,9.10
2010,11,08,10,19,9.10
2010,11,08,10,20,9.10
2010,11,08,10,21,9.10
2010,11,08,10,22,9.10
2010,11,08,10,23,9.10
2010,11,08,10,24,9.10
2010,11,08,10,25,9.20
2010,11,08,10,26,9.20
2010,11,08,10,27,9.20
2010,11,08,10,28,9.20
2010,11,08,10,29,9.20
2010,11,08,10,30,9.20
2010,11,08,10,31,9.20
2010,11,08,10,32,9.10
2010,11,08,10,33,9.10
2010,11,08,10,34,9.10
2010,11,08,10,35,9.10
2010,11,08,10,36,9.10
2010,11,08,10,37,9.10
2010,11,08,10,38,9.10
2010,11,08,10,39,9.10
2010,11,08,10,40,9.20
2010,11,08,10,41,9.20
2010,11,08,10,42,9.20
2010,11,08,10,43,9.20
2010,11,08,10,44,9.20
2010,11,08,10,45,9.30
2010,11,08,10,46,9.30
2010,11,08,10,47,9.30
2010,11,08,10,48,9.30
2010,11,08,10,49,9.30
2010,11,08,10,50,9.30
2010,11,08,10,51,9.30
2010,11,08,10,52,9.30
2010,11,08,10,53,9.30
2010,11,08,10,54,9.30
2010,11,08,10,55,9.20
2010,11,08,10,56,9.20
2010,11,08,10,57,9.20
2010,11,08,10,58,9.30
2010,11,08,10,59,9.30
2010,11,08,11,00,9.30
2010,11,08,11,01,9.40
2010,11,08,11,02,9.40
2010,11,08,11,03,9.50
2010,11,08,11,04,9.40
2010,11,08,11,05,9.40
2010,11,08,11,06,9.40
2010,11,08,11,07,9.30
2010,11,08,11,08,9.40
2010,11,08,11,09,9.40
2010,11,08,11,10,9.40
2010,11,08,11,11,9.50
2010,11,08,11,12,9.50
2010,11,08,11,13,9.60
2010,11,08,11,14,9.60
2010,11,08,11,15,9.60
2010,11,08,11,16,9.70
2010,11,08,11,17,9.80
2010,11,08,11,18,9.80
2010,11,08,11,19,9.80
2010,11,08,11,20,9.90
2010,11,08,11,21,9.80
2010,11,08,11,22,9.80
2010,11,08,11,23,9.80
2010,11,08,11,24,9.80
2010,11,08,11,25,9.80
2010,11,08,11,26,9.80
2010,11,08,11,27,9.80
2010,11,08,11,28,9.80
2010,11,08,11,29,9.80
2010,11,08,11,30,9.90
2010,11,08,11,31,9.90
2010,11,08,11,32,9.90
2010,11,08,11,33,9.90
2010,11,08,11,34,9.90
2010,11,08,11,35,9.90
2010,11,08,11,36,9.90
2010,11,08,11,37,9.80
2010,11,08,11,38,9.80
2010,11,08,11,39,9.80
2010,11,08,11,40,9.80
2010,11,08,11,41,9.90
2010,11,08,11,42,10.00
2010,11,08,11,43,10.10
2010,11,08,11,44,10.10
2010,11,08,11,45,10.20
2010,11,08,11,46,10.40
2010,11,08,11,47,10.60
2010,11,08,11,48,10.70
2010,11,08,11,49,10.70
2010,11,08,11,50,10.70
2010,11,08,11,51,10.70
2010,11,08,11,52,10.70
2010,11,08,11,53,10.70
2010,11,08,11,54,10.70
2010,11,08,11,55,10.70
2010,11,08,11,56,10.70
2010,11,08,11,57,10.80
2010,11,08,11,58,10.90
2010,11,08,11,59,11.00
2010,11,08,12,00,11.10
2010,11,08,12,01,11.00
2010,11,08,12,02,10.90
2010,11,08,12,03,10.80
2010,11,08,12,04,10.70
2010,11,08,12,05,10.70
2010,11,08,12,06,10.70
2010,11,08,12,07,10.70
2010,11,08,12,08,10.70
2010,11,08,12,09,10.80
2010,11,08,12,10,10.80
2010,11,08,12,11,10.80
2010,11,08,12,12,10.80
2010,11,08,12,13,10.90
2010,11,08,12,14,11.00
2010,11,08,12,15,11.10
2010,11,08,12,16,11.30
2010,11,08,12,17,11.30
2010,11,08,12,18,11.40
2010,11,08,12,19,11.40
2010,11,08,12,20,11.30
2010,11,08,12,21,11.10
2010,11,08,12,22,10.90
2010,11,08,12,23,10.80
2010,11,08,12,24,10.70
2010,11,08,12,25,10.70
2010,11,08,12,26,10.70
2010,11,08,12,27,10.80
2010,11,08,12,28,10.80
2010,11,08,12,29,10.90
2010,11,08,12,30,11.10
2010,11,08,12,31,11.20
2010,11,08,12,32,11.30
2010,11,08,12,33,11.40
2010,11,08,12,34,11.50
2010,11,08,12,35,11.50
2010,11,08,12,36,11.30
2010,11,08,12,37,11.30
2010,11,08,12,38,11.30
2010,11,08,12,39,11.30
2010,11,08,12,40,11.30
2010,11,08,12,41,11.30
2010,11,08,12,42,11.40
2010,11,08,12,43,11.40
2010,11,08,12,44,11.40
2010,11,08,12,45,11.20
2010,11,08,12,46,11.00
2010,11,08,12,47,10.90
2010,11,08,12,48,10.80
2010,11,08,12,49,10.70
2010,11,08,12,50,10.60
2010,11,08,12,51,10.40
2010,11,08,12,52,10.30
2010,11,08,12,53,10.30
2010,11,08,12,54,10.40
2010,11,08,12,55,10.40
2010,11,08,12,56,10.40
2010,11,08,12,57,10.40
2010,11,08,12,58,10.40
2010,11,08,12,59,10.40
2010,11,08,13,00,10.40
2010,11,08,13,01,10.40
2010,11,08,13,02,10.40
2010,11,08,13,03,10.40
2010,11,08,13,04,10.50
2010,11,08,13,05,10.50
2010,11,08,13,06,10.40
2010,11,08,13,07,10.30
2010,11,08,13,08,10.20
2010,11,08,13,09,10.20
2010,11,08,13,10,10.20
2010,11,08,13,11,10.30
2010,11,08,13,12,10.30
2010,11,08,13,13,10.30
2010,11,08,13,14,10.30
2010,11,08,13,15,10.40
2010,11,08,13,16,10.40
2010,11,08,13,17,10.50
2010,11,08,13,18,10.50
2010,11,08,13,19,10.60
2010,11,08,13,20,10.70
2010,11,08,13,21,10.80
2010,11,08,13,22,10.80
2010,11,08,13,23,10.70
2010,11,08,13,24,10.60
2010,11,08,13,25,10.60
2010,11,08,13,26,10.50
2010,11,08,13,27,10.50
2010,11,08,13,28,10.40
2010,11,08,13,29,10.30
2010,11,08,13,30,10.20
2010,11,08,13,31,10.10
2010,11,08,13,32,10.10
2010,11,08,13,33,10.10
2010,11,08,13,34,10.10
2010,11,08,13,35,10.10
2010,11,08,13,36,10.20
2010,11,08,13,37,10.20
2010,11,08,13,38,10.30
2010,11,08,13,39,10.30
2010,11,08,13,40,10.30
2010,11,08,13,41,10.40
2010,11,08,13,42,10.40
2010,11,08,13,43,10.40
2010,11,08,13,44,10.40
2010,11,08,13,45,10.40
2010,11,08,13,46,10.30
2010,11,08,13,47,10.30
2010,11,08,13,48,10.30
2010,11,08,13,49,10.40
2010,11,08,13,50,10.40
2010,11,08,13,51,10.40
2010,11,08,13,52,10.50
2010,11,08,13,53,10.50
2010,11,08,13,54,10.40
2010,11,08,13,55,10.30
2010,11,08,13,56,10.30
2010,11,08,13,57,10.30
2010,11,08,13,58,10.30
2010,11,08,13,59,10.30
2010,11,08,14,00,10.30
2010,11,08,14,01,10.30
2010,11,08,14,02,10.30
2010,11,08,14,03,10.20
2010,11,08,14,04,10.20
2010,11,08,14,05,10.10
2010,11,08,14,06,10.10
2010,11,08,14,07,10.10
2010,11,08,14,08,10.10
2010,11,08,14,09,10.10
2010,11,08,14,10,10.20
2010,11,08,14,11,10.20
2010,11,08,14,12,10.30
2010,11,08,14,13,10.30
2010,11,08,14,14,10.30
2010,11,08,14,15,10.40
2010,11,08,14,16,10.40
2010,11,08,14,17,10.40
2010,11,08,14,18,10.30
2010,11,08,14,19,10.30
2010,11,08,14,20,10.30
2010,11,08,14,21,10.20
2010,11,08,14,22,10.20
2010,11,08,14,23,10.20
2010,11,08,14,24,10.20
2010,11,08,14,25,10.20
2010,11,08,14,26,10.20
2010,11,08,14,27,10.20
2010,11,08,14,28,10.20
2010,11,08,14,29,10.30
2010,11,08,14,30,10.30
2010,11,08,14,31,10.40
2010,11,08,14,32,10.40
2010,11,08,14,33,10.40
2010,11,08,14,34,10.40
2010,11,08,14,35,10.40
2010,11,08,14,36,10.30
2010,11,08,14,37,10.30
2010,11,08,14,38,10.30
2010,11,08,14,39,10.30
2010,11,08,14,40,10.30
2010,11,08,14,41,10.30
2010,11,08,14,42,10.30
2010,11,08,14,43,10.30
2010,11,08,14,44,10.30
2010,11,08,14,45,10.30
2010,11,08,14,46,10.30
2010,11,08,14,47,10.30
2010,11,08,14,48,10.30
2010,11,08,14,49,10.30
2010,11,08,14,50,10.30
2010,11,08,14,51,10.30
2010,11,08,14,52,10.30
2010,11,08,14,53,10.20
2010,11,08,14,54,10.10
2010,11,08,14,55,10.00
2010,11,08,14,56,9.90
2010,11,08,14,57,9.80
2010,11,08,14,58,9.80
2010,11,08,14,59,9.70
2010,11,08,15,00,9.60
2010,11,08,15,01,9.60
2010,11,08,15,02,9.60
2010,11,08,15,03,9.50
2010,11,08,15,04,9.50
2010,11,08,15,05,9.50
2010,11,08,15,06,9.40
2010,11,08,15,07,9.40
2010,11,08,15,08,9.40
2010,11,08,15,09,9.40
2010,11,08,15,10,9.40
2010,11,08,15,11,9.30
2010,11,08,15,12,9.30
2010,11,08,15,13,9.30
2010,11,08,15,14,9.20
2010,11,08,15,15,9.20
2010,11,08,15,16,9.20
2010,11,08,15,17,9.10
2010,11,08,15,18,9.00
2010,11,08,15,19,9.00
2010,11,08,15,20,8.90
2010,11,08,15,21,8.90
2010,11,08,15,22,8.80
2010,11,08,15,23,8.80
2010,11,08,15,24,8.80
2010,11,08,15,25,8.80
2010,11,08,15,26,8.70
2010,11,08,15,27,8.70
2010,11,08,15,28,8.70
2010,11,08,15,29,8.60
2010,11,08,15,30,8.60
2010,11,08,15,31,8.60
2010,11,08,15,32,8.60
2010,11,08,15,33,8.60
2010,11,08,15,34,8.60
2010,11,08,15,35,8.50
2010,11,08,15,36,8.50
2010,11,08,15,37,8.50
2010,11,08,15,38,8.50
2010,11,08,15,39,8.40
2010,11,08,15,40,8.40
2010,11,08,15,41,8.40
2010,11,08,15,42,8.40
2010,11,08,15,43,8.40
2010,11,08,15,44,8.40
2010,11,08,15,45,8.40
2010,11,08,15,46,8.40
2010,11,08,15,47,8.30
2010,11,08,15,48,8.30
2010,11,08,15,49,8.30
2010,11,08,15,50,8.30
2010,11,08,15,51,8.30
2010,11,08,15,52,8.30
2010,11,08,15,53,8.30
2010,11,08,15,54,8.20
2010,11,08,15,55,8.20
2010,11,08,15,56,8.20
2010,11,08,15,57,8.20
2010,11,08,15,58,8.20
2010,11,08,15,59,8.20
2010,11,08,16,00,8.20
2010,11,08,16,01,8.20
2010,11,08,16,02,8.20
2010,11,08,16,03,8.10
2010,11,08,16,04,8.10
2010,11,08,16,05,8.10
2010,11,08,16,06,8.10
2010,11,08,16,07,8.10
2010,11,08,16,08,8.10
2010,11,08,16,09,8.10
2010,11,08,16,10,8.10
2010,11,08,16,11,8.10
2010,11,08,16,12,8.10
2010,11,08,16,13,8.10
2010,11,08,16,14,8.10
2010,11,08,16,15,8.10
2010,11,08,16,16,8.10
2010,11,08,16,17,8.00
2010,11,08,16,18,8.00
2010,11,08,16,19,8.00
2010,11,08,16,20,8.00
2010,11,08,16,21,8.00
2010,11,08,16,22,8.00
2010,11,08,16,23,8.00
2010,11,08,16,24,7.90
2010,11,08,16,25,7.90
2010,11,08,16,26,7.90
2010,11,08,16,27,7.90
2010,11,08,16,28,7.80
2010,11,08,16,29,7.80
2010,11,08,16,30,7.80
2010,11,08,16,31,7.80
2010,11,08,16,32,7.80
2010,11,08,16,33,7.70
2010,11,08,16,34,7.70
2010,11,08,16,35,7.60
2010,11,08,16,36,7.60
2010,11,08,16,37,7.60
2010,11,08,16,38,7.50
2010,11,08,16,39,7.50
2010,11,08,16,40,7.50
2010,11,08,16,41,7.50
2010,11,08,16,42,7.50
2010,11,08,16,43,7.50
2010,11,08,16,44,7.40
2010,11,08,16,45,7.40
2010,11,08,16,46,7.50
2010,11,08,16,47,7.50
2010,11,08,16,48,7.50
2010,11,08,16,49,7.50
2010,11,08,16,50,7.50
2010,11,08,16,51,7.50
2010,11,08,16,52,7.50
2010,11,08,16,53,7.50
2010,11,08,16,54,7.50
2010,11,08,16,55,7.50
2010,11,08,16,56,7.50
2010,11,08,16,57,7.40
2010,11,08,16,58,7.40
2010,11,08,16,59,7.40
2010,11,08,17,00,7.40
2010,11,08,17,01,7.30
2010,11,08,17,02,7.30
2010,11,08,17,03,7.30
2010,11,08,17,04,7.30
2010,11,08,17,05,7.30
2010,11,08,17,06,7.30
2010,11,08,17,07,7.30
2010,11,08,17,08,7.30
2010,11,08,17,09,7.20
2010,11,08,17,10,7.20
2010,11,08,17,11,7.20
2010,11,08,17,12,7.20
2010,11,08,17,13,7.20
2010,11,08,17,14,7.20
2010,11,08,17,15,7.20
2010,11,08,17,16,7.20
2010,11,08,17,17,7.10
2010,11,08,17,18,7.20
2010,11,08,17,19,7.10
2010,11,08,17,20,7.10
2010,11,08,17,21,7.10
2010,11,08,17,22,7.10
2010,11,08,17,23,7.00
2010,11,08,17,24,7.00
2010,11,08,17,25,6.90
2010,11,08,17,26,6.90
2010,11,08,17,27,6.90
2010,11,08,17,28,6.90
2010,11,08,17,29,6.90
2010,11,08,17,30,6.90
2010,11,08,17,31,6.90
2010,11,08,17,32,6.80
2010,11,08,17,33,6.80
2010,11,08,17,34,6.90
2010,11,08,17,35,6.90
2010,11,08,17,36,6.80
2010,11,08,17,37,6.80
2010,11,08,17,38,6.80
2010,11,08,17,39,6.80
2010,11,08,17,40,6.70
2010,11,08,17,41,6.70
2010,11,08,17,42,6.70
2010,11,08,17,43,6.70
2010,11,08,17,44,6.70
2010,11,08,17,45,6.60
2010,11,08,17,46,6.60
2010,11,08,17,47,6.60
2010,11,08,17,48,6.60
2010,11,08,17,49,6.60
2010,11,08,17,50,6.60
2010,11,08,17,51,6.60
2010,11,08,17,52,6.50
2010,11,08,17,53,6.50
2010,11,08,17,54,6.40
2010,11,08,17,55,6.40
2010,11,08,17,56,6.40
2010,11,08,17,57,6.40